RH
39 42 39 37 38 39 38 34 33 30 38 38 34 34 34 44 40 43 44 31 35 47 32 28 40 50 51 47 43 43 43 48 56 61 63 69 66 69 74 78 83 80 75 74
44 40 39 46 44 41 41 37 35 35 37 35 31 30 27 33 38 40 43 31 33 37 26 29 36 41 48 54 59 61 64 63 65 70 77 80 83 81 83 89 81 83 92 86
42 41 42 42 42 43 42 36 36 36 36 33 31 29 27 30 34 36 36 42 35 30 30 29 31 37 43 45 49 56 59 63 69 74 79 78 74 72 82 77 86 97 98 74
41 38 39 42 40 41 40 40 39 39 38 36 34 35 29 30 28 27 32 36 36 40 33 31 30 30 33 37 42 46 50 52 58 67 68 68 80 86 86 85 95 100 82 67
37 37 38 41 42 46 44 41 40 38 36 38 35 37 29 30 28 26 25 27 32 32 43 47 44 42 44 45 48 50 56 59 61 68 72 73 76 84 88 91 91 90 92 80
37 36 34 40 41 46 46 43 39 39 39 46 36 36 31 29 28 28 28 28 28 31 30 42 51 53 55 56 61 66 67 69 73 75 78 83 76 94 100 99 95 93 88 79
35 33 32 36 41 44 44 43 44 45 50 47 38 46 32 26 31 30 29 30 30 28 31 30 42 46 51 60 58 62 66 70 75 77 83 81 68 73 95 98 96 93 80 73
34 34 30 34 41 44 44 42 40 46 49 40 43 40 26 27 27 29 28 26 30 28 28 28 33 38 46 54 61 65 69 76 77 78 81 75 75 72 75 80 98 97 84 96
35 34 33 37 41 43 44 43 40 40 55 56 37 33 28 33 39 31 33 32 32 33 32 32 32 34 41 52 64 70 76 81 83 77 74 75 78 76 74 83 92 90 96 100
34 34 34 35 41 48 43 41 43 45 53 53 41 36 25 30 20 21 19 12 12 28 35 34 36 40 47 57 65 72 78 85 94 89 80 72 75 72 66 76 92 87 97 99
34 34 35 40 39 45 49 45 43 42 40 44 49 34 30 27 25 20 26 25 18 10 19 29 37 39 36 49 52 66 70 60 58 83 74 64 66 65 67 82 84 90 99 96
33 34 33 32 33 31 30 39 42 42 44 42 44 38 30 28 29 29 29 27 27 21 11 10 12 16 21 22 20 20 25 42 53 64 70 72 73 83 90 98 98 100 97 94
32 34 34 34 33 32 34 29 29 31 39 41 53 38 30 30 31 33 32 29 30 29 22 20 23 25 27 32 38 58 66 62 62 54 55 68 77 92 95 98 99 99 92 76
32 31 31 34 30 27 29 26 26 32 43 42 41 38 35 37 39 35 35 31 26 33 30 27 27 29 35 54 70 70 55 54 49 51 54 64 72 84 89 94 98 98 79 90
31 33 32 29 28 28 26 27 28 34 36 42 36 35 39 38 34 32 33 31 30 29 31 31 30 30 33 43 51 48 47 47 49 55 60 74 87 85 80 84 88 81 100 91
31 32 31 32 34 33 29 30 34 34 39 46 44 42 37 36 39 39 32 31 32 32 29 33 34 37 43 49 60 56 49 45 46 58 64 84 84 47 56 71 93 100 82 95
34 33 35 38 36 37 42 36 35 36 34 34 34 30 32 32 33 30 35 36 35 32 32 32 37 41 44 42 38 27 25 26 32 42 49 48 52 58 79 95 98 98 96 99
50 43 42 40 45 62 36 34 36 38 38 36 34 32 34 37 37 35 33 32 31 32 34 39 41 40 34 29 28 26 26 34 46 55 58 62 69 86 98 88 96 92 90 98
50 48 48 45 46 38 38 38 39 36 34 34 28 24 30 29 28 35 38 37 40 41 40 38 34 32 32 27 25 29 35 41 47 52 61 74 93 100 93 87 100 99 93 96
48 50 54 47 46 62 38 40 39 36 36 31 29 31 33 31 35 37 44 43 41 35 33 34 35 29 26 29 34 40 48 54 57 60 64 72 92 94 88 99 100 98 93 79
49 54 55 50 45 41 40 39 40 42 31 33 36 34 30 31 37 42 43 37 35 37 40 35 30 30 32 37 44 49 51 53 59 71 85 88 90 85 98 98 90 69 50 18
48 52 53 50 49 51 40 42 45 34 35 39 42 35 32 33 41 42 38 38 43 44 38 33 32 35 40 46 52 55 60 77 90 92 90 88 89 87 74 58 34 12 7 7
62 46 43 41 42 40 39 40 40 44 28 42 46 38 35 37 40 40 40 50 47 40 36 37 39 44 49 56 64 72 78 92 92 79 68 73 64 46 20 11 8 8 8 9
76 54 48 45 43 43 42 43 47 42 34 52 42 38 38 38 41 44 54 48 43 43 45 48 50 55 64 71 79 83 100 89 70 70 63 46 20 14 10 9 10 12 14 16
63 55 50 50 48 45 46 42 42 40 37 46 42 44 45 45 48 52 50 51 53 56 61 67 66 74 80 87 97 100 94 76 71 58 30 20 12 11 12 14 14 17 20 18
63 57 52 46 43 44 41 42 41 35 34 40 43 47 49 52 51 52 55 60 65 70 78 80 81 83 92 100 100 92 78 70 44 25 17 15 16 16 15 16 21 22 13 8
Wind_Speed
9 7 9 5 5 6 6 7 9 10 8 6 6 9 12 13 8 4 3 6 9 8 10 13 15 14 13 14 14 14 13 13 13 11 10 10 10 12 12 15 13 12 12 14
9 4 6 6 5 4 4 3 6 9 10 11 10 10 5 8 8 6 2 5 11 16 12 15 16 16 15 15 15 15 14 13 13 11 10 10 10 11 13 15 13 12 12 15
12 6 5 8 11 8 7 6 5 7 7 9 9 7 3 10 11 11 10 9 13 13 13 12 13 15 15 14 13 13 12 12 13 12 13 11 11 9 11 12 13 15 17 18
10 9 9 8 12 12 12 9 8 7 7 5 7 4 6 6 8 13 14 15 15 15 15 16 13 11 9 11 13 13 13 13 13 14 14 13 13 12 12 14 17 20 22 19
9 3 2 3 8 9 7 4 4 5 6 7 7 4 5 7 7 9 11 15 18 18 18 17 15 13 11 12 11 12 12 14 15 15 17 18 17 17 16 19 22 24 24 21
16 10 9 5 5 8 9 7 5 6 6 3 7 5 6 5 9 10 11 15 16 20 21 20 18 16 14 16 15 14 12 13 16 18 18 19 19 18 21 23 24 26 26 24
20 18 15 12 11 10 12 8 2 1 2 3 5 5 8 10 11 13 12 14 17 17 21 20 21 20 18 17 15 16 13 15 15 16 20 20 21 19 17 22 22 25 25 25
20 11 15 11 14 12 13 12 5 3 2 0 3 5 4 9 13 8 11 11 16 18 19 19 18 19 19 16 16 13 15 14 15 16 17 17 25 22 19 19 22 24 24 25
10 10 8 8 6 12 12 10 8 5 2 1 4 7 11 3 4 4 3 6 10 11 13 18 19 18 16 16 17 13 14 15 17 16 20 20 20 20 22 23 23 22 24 25
15 6 9 11 12 11 12 11 5 5 4 3 3 4 5 6 3 6 6 4 2 8 10 13 17 17 18 17 18 19 17 19 19 19 20 21 20 21 20 22 22 20 22 26
25 18 9 11 11 15 12 12 8 6 4 2 1 4 3 8 4 4 8 8 6 3 5 9 13 13 16 18 21 21 20 19 17 19 20 21 21 20 21 21 22 22 26 21
23 17 21 22 14 13 16 15 14 10 5 8 7 14 14 10 9 9 6 3 4 3 0 3 7 8 6 6 8 9 9 8 10 14 18 20 20 20 20 22 23 19 21 24
26 16 16 10 15 20 17 18 19 19 19 17 10 7 4 6 7 13 8 7 10 8 4 5 5 5 5 6 6 8 11 13 14 17 21 22 23 25 22 23 24 23 24 30
16 24 21 21 21 18 17 21 19 21 14 17 25 25 17 13 14 13 14 14 15 14 13 13 10 10 10 10 12 16 17 17 19 22 24 25 26 25 24 26 29 26 27 30
30 24 23 26 27 24 25 26 21 20 23 25 25 24 17 17 12 13 17 17 15 16 19 19 16 16 15 17 18 19 20 22 24 27 28 27 27 27 28 28 31 28 29 36
33 27 25 27 26 25 25 23 18 17 19 24 23 23 17 18 14 13 16 18 16 16 17 22 21 21 21 22 23 23 23 25 26 28 28 28 26 26 28 27 26 31 36 31
30 28 27 23 24 23 23 25 23 21 22 23 27 29 26 25 24 21 20 17 17 18 20 23 23 22 21 21 20 22 23 24 24 23 23 25 28 28 26 29 30 35 36 39
19 24 27 20 19 7 23 23 22 25 26 28 33 35 30 27 26 25 24 23 23 25 24 21 18 18 18 20 22 23 23 23 23 24 27 29 29 28 26 32 36 31 36 35
24 24 20 17 21 22 21 23 21 20 35 28 26 18 22 24 25 25 24 23 22 18 16 17 18 19 21 22 22 22 22 23 24 25 26 27 27 29 31 28 32 32 29 34
25 26 28 13 11 9 24 23 23 20 37 29 24 22 19 18 21 21 21 20 17 16 15 16 18 19 20 19 19 20 20 22 23 24 26 25 24 27 30 25 29 31 32 29
26 28 31 31 21 23 22 20 19 17 32 20 17 14 15 15 13 13 18 18 16 15 16 17 17 18 18 19 19 21 23 24 24 24 25 24 27 27 26 27 28 27 29 30
30 27 25 30 22 16 28 23 26 30 23 21 18 13 14 14 16 19 19 16 16 15 15 16 17 17 18 19 21 24 24 23 25 26 28 28 24 22 23 25 27 28 31 34
29 35 34 30 31 30 24 23 24 26 23 18 19 13 15 17 20 20 19 17 15 16 16 16 17 18 20 22 24 25 25 26 27 27 21 21 22 23 24 27 29 31 35 39
34 29 34 31 32 32 31 31 31 30 24 23 15 14 14 19 21 20 18 16 16 17 17 18 19 20 22 24 25 27 27 26 21 20 21 21 22 25 27 30 33 35 38 40
34 30 34 35 32 31 31 29 31 30 24 22 18 17 19 21 21 19 18 18 17 18 19 20 21 22 24 25 27 27 25 21 20 20 20 22 24 27 29 32 34 37 40 43
36 33 30 35 29 28 23 24 24 22 21 22 20 19 21 22 20 20 19 19 20 21 22 22 23 25 26 26 26 24 20 20 19 20 22 25 28 31 33 34 36 38 40 43
Wind_Direction
222 238 255 269 203 209 196 204 224 205 228 335 10 337 247 257 272 255 144 196 180 168 174 169 168 169 169 165 163 157 161 162 164 166 171 178 191 206 213 217 231 243 255 264
209 225 194 206 206 196 222 205 254 240 225 327 332 323 249 256 273 271 237 166 173 179 173 170 176 179 175 175 170 171 169 178 187 187 189 193 206 217 227 232 242 254 264 268
216 192 237 254 235 233 244 237 260 267 232 284 306 306 282 253 251 252 227 179 191 200 187 177 179 180 186 185 181 181 187 193 197 205 218 225 236 247 249 250 252 261 261 265
237 238 258 251 229 233 248 256 243 266 266 278 313 286 323 286 280 256 252 228 206 207 205 205 203 194 185 186 197 201 207 219 223 227 239 248 252 253 255 259 258 261 263 269
196 192 219 255 236 240 240 229 226 241 265 281 264 248 294 300 285 268 251 242 231 218 214 208 198 183 188 196 202 214 224 234 237 240 248 251 253 258 259 257 262 267 271 271
231 245 261 277 286 246 238 243 253 259 253 222 239 227 286 269 291 274 264 258 253 239 220 213 206 208 207 209 212 221 235 239 243 247 254 255 254 262 262 270 266 269 269 266
231 241 258 270 261 241 241 215 251 199 170 215 201 212 260 297 289 276 259 256 232 221 229 221 220 220 222 226 229 233 246 260 270 263 255 259 270 272 263 267 275 280 263 263
228 248 250 251 246 222 217 217 204 220 198 242 190 235 283 303 301 293 281 244 217 208 201 224 221 231 236 236 236 242 250 261 258 263 258 255 265 274 283 274 277 276 261 265
202 218 221 221 216 205 205 201 222 201 228 280 246 257 295 336 326 297 281 201 203 217 218 213 216 228 232 232 238 245 254 262 263 270 260 260 270 272 268 270 273 269 270 274
219 213 232 215 215 222 213 221 190 200 175 218 253 254 256 20 103 58 45 53 229 234 217 218 216 216 222 231 229 237 248 254 260 267 266 269 266 264 266 265 263 259 266 266
220 232 217 214 208 211 217 205 218 216 198 193 198 239 244 321 289 333 340 342 1 339 244 223 211 227 212 215 225 225 236 243 247 257 265 267 267 267 263 260 258 260 266 293
220 235 236 245 232 242 248 245 244 235 231 231 249 253 283 295 266 300 289 305 328 342 12 178 159 156 176 195 207 214 228 246 259 271 272 275 275 274 273 272 278 279 282 284
216 212 219 235 241 246 242 250 256 264 265 247 233 241 226 282 279 294 288 275 308 301 248 192 222 232 243 244 250 258 265 272 277 280 282 282 281 281 279 277 270 268 286 277
213 228 229 230 242 244 246 258 261 258 235 243 246 270 270 286 276 269 261 271 278 271 252 236 236 237 241 243 253 265 270 275 277 278 280 282 281 279 277 277 270 289 291 291
238 244 244 244 252 252 248 253 258 257 260 244 267 272 273 281 299 275 254 260 270 274 251 245 249 245 241 244 257 266 271 274 276 277 279 277 280 278 280 276 274 288 290 288
235 242 243 247 256 249 241 244 243 257 260 259 261 266 272 275 273 276 265 261 260 267 252 241 248 252 252 252 257 264 270 274 275 276 279 278 278 280 281 288 293 286 302 297
235 236 236 233 241 235 236 236 246 257 260 267 266 278 280 273 272 271 268 264 262 257 251 248 252 252 252 258 266 276 281 282 280 278 277 275 281 286 287 289 295 291 303 286
227 236 228 227 214 219 247 254 256 260 263 268 274 279 274 267 265 263 260 259 258 251 241 240 243 249 262 276 285 288 289 288 286 282 281 281 282 286 286 294 290 298 289 288
229 230 225 221 220 241 246 250 256 268 279 278 271 269 271 267 261 256 256 245 224 223 235 247 260 276 287 290 291 291 290 288 286 284 280 278 286 290 293 288 290 292 294 298
226 228 229 220 222 224 253 261 272 276 274 288 272 273 268 262 246 248 230 216 219 232 250 270 280 287 289 288 289 289 290 291 290 289 289 295 301 299 299 300 292 294 300 302
223 227 226 225 235 247 254 258 262 240 276 299 289 277 249 248 238 224 212 217 231 250 267 280 288 289 290 292 295 298 301 302 302 307 310 305 299 305 302 296 300 304 306 308
228 213 218 226 231 246 251 254 250 281 285 284 278 275 243 228 217 215 223 235 250 263 278 286 290 293 295 297 301 301 304 306 309 308 306 304 306 305 305 306 308 309 309 309
234 228 228 233 240 247 255 266 272 280 285 276 272 259 232 226 220 223 234 244 260 275 284 290 296 297 297 297 298 303 307 304 302 303 305 306 307 309 309 308 308 309 309 309
252 235 237 244 250 255 262 270 273 279 281 273 254 223 219 226 227 232 237 253 270 278 285 292 296 295 293 295 299 302 302 305 303 304 306 306 307 308 309 309 309 309 309 309
236 239 238 247 249 256 262 274 278 277 266 258 236 227 217 223 227 232 244 265 277 284 289 293 291 289 294 296 298 295 300 300 302 301 301 303 305 306 306 307 309 310 312 313
239 240 240 250 260 265 273 280 274 266 256 248 237 223 217 223 230 240 256 269 278 284 287 288 288 289 291 290 289 293 293 294 294 298 302 304 304 305 307 309 310 311 313 314